Location: Dannhausen
(51.8650°N, 10.1026°E)
Time: 13:17:49
(UTC+00:00)

Cosmos 1023 Rocket - Pass Details

Date: 09 April 2020
Orbit: 736 x 772 km, 74.1° (Epoch: 03 June)

Event Time Altitude Azimuth Distance (km) Brightness Sun altitude
Rises 19:22:51 0° 200° (SSW) 3,197 7.6 -11.6°
Reaches altitude 10° 19:25:13 10° 199° (SSW) 2,271 6.8 -11.9°
Maximum altitude 19:30:21 81° 113° (ESE) 762 4.4 -12.6°
Drops below altitude 10° 19:35:30 10° 27° (NNE) 2,266 7.0 -13.3°
Sets 19:37:51 0° 26° (NNE) 3,189 7.8 -13.6°
